TimePDT,TemperatureF,Dew PointF,Humidity,Sea Level PressureIn,VisibilityMPH,Wind Direction,Wind SpeedMPH,Gust SpeedMPH,PrecipitationIn,Events,Conditions,WindDirDegrees,DateUTC
12:53 AM,64.0,55.0,73,29.89,10.0,South,11.5,-,N/A,,Clear,190,2013-06-26 07:53:00
1:53 AM,63.0,54.0,72,29.90,10.0,South,6.9,-,N/A,,Clear,190,2013-06-26 08:53:00
2:53 AM,62.1,55.0,78,29.90,10.0,SE,3.5,-,N/A,,Partly Cloudy,130,2013-06-26 09:53:00
3:53 AM,60.1,57.0,90,29.92,10.0,SE,6.9,-,N/A,,Partly Cloudy,130,2013-06-26 10:53:00
4:53 AM,60.1,57.0,90,29.92,10.0,ESE,3.5,-,N/A,,Clear,110,2013-06-26 11:53:00
5:53 AM,61.0,57.0,87,29.93,10.0,ESE,5.8,-,N/A,,Mostly Cloudy,120,2013-06-26 12:53:00
6:53 AM,62.1,57.0,84,29.94,10.0,Calm,Calm,-,N/A,,Mostly Cloudy,0,2013-06-26 13:53:00
7:53 AM,63.0,55.9,78,29.94,10.0,ESE,4.6,-,N/A,,Clear,110,2013-06-26 14:53:00
8:53 AM,64.0,57.0,78,29.94,10.0,Calm,Calm,-,N/A,,Clear,0,2013-06-26 15:53:00
9:53 AM,66.9,55.9,68,29.96,10.0,Calm,Calm,-,N/A,,Clear,0,2013-06-26 16:53:00
10:53 AM,69.1,52.0,54,29.97,10.0,Calm,Calm,-,N/A,,Clear,0,2013-06-26 17:53:00
11:53 AM,70.0,54.0,57,29.97,10.0,Calm,Calm,-,0.00,,Overcast,0,2013-06-26 18:53:00
12:53 PM,69.1,55.0,61,29.98,7.0,Calm,Calm,-,0.01,Rain,Light Rain,0,2013-06-26 19:53:00
1:53 PM,69.1,57.9,68,29.97,10.0,Calm,Calm,-,0.02,Rain,Light Rain,0,2013-06-26 20:53:00
2:53 PM,70.0,57.9,65,29.99,10.0,South,5.8,-,0.00,Rain,Light Rain,170,2013-06-26 21:53:00
3:53 PM,70.0,59.0,68,30.00,10.0,SSE,11.5,-,0.00,Rain,Light Rain,160,2013-06-26 22:53:00
4:53 PM,72.0,57.9,61,30.01,10.0,South,8.1,-,0.00,,Mostly Cloudy,190,2013-06-26 23:53:00
5:53 PM,71.1,60.1,68,30.00,10.0,SSE,8.1,-,N/A,,Partly Cloudy,150,2013-06-27 00:53:00
6:53 PM,72.0,60.1,66,30.01,10.0,South,3.5,-,N/A,,Scattered Clouds,180,2013-06-27 01:53:00
7:53 PM,73.0,55.9,55,30.02,10.0,SSW,5.8,-,N/A,,Clear,200,2013-06-27 02:53:00
8:53 PM,70.0,57.9,65,30.03,10.0,SSE,6.9,-,N/A,,Clear,160,2013-06-27 03:53:00
9:53 PM,66.9,59.0,76,30.05,10.0,SSE,6.9,-,N/A,,Clear,150,2013-06-27 04:53:00
10:53 PM,64.0,60.1,87,30.04,10.0,East,4.6,-,N/A,,Clear,90,2013-06-27 05:53:00
11:53 PM,64.9,60.1,84,30.06,10.0,South,5.8,-,N/A,,Partly Cloudy,170,2013-06-27 06:53:00